Lakeview, OR

10:09 AM PST on December 09, 2016 (GMT -0800)
Lake County

Weather History for KLKV - October, 2012

Change the Weather History Date:

Friday, October 5, 2012

  Actual Average Record
Temperature  
Mean Temperature 48 °F -  
Max Temperature 69 °F 69 °F 87 °F (1933)
Min Temperature 26 °F 34 °F 19 °F (2013)
Degree Days  
Heating Degree Days 18    
Moisture  
Dew Point 21 °F    
Average Humidity 37    
Maximum Humidity 69    
Minimum Humidity 19    
Precipitation  
Precipitation 0.00 in - - ()
Sea Level Pressure  
Sea Level Pressure 30.18 in    
Wind  
Wind Speed 10 mph (NNW)    
Max Wind Speed 18 mph    
Max Gust Speed 24 mph    
Visibility 10 miles    
Events      
Averages and records for this station are not official NWS values.
T = Trace of Precipitation, MM = Missing Value Source: NWS Daily Summary

Daily Weather History Graph

Daily Weather History Graph

Search for Another Location

Airport or City:

Trip Planner

Search our weather history database for the weather conditions in past years. The results will help you decide how hot, cold, wet, or windy it might be!

Date:

Astronomy

Oct. 05, 2012 Rise Set
Actual Time 7:03 AM PDT 6:35 PM PDT
Civil Twilight 6:35 AM PDT 7:03 PM PDT
Nautical Twilight 6:03 AM PDT 7:35 PM PDT
Astronomical Twilight 5:30 AM PDT 8:08 PM PDT
Moon 9:58 PM PDT (10/5) 12:20 PM PDT (10/5)
Length of Visible Light 12h 27m
Length of Day
11h 31m
Waning Gibbous, 73% of the Moon is Illuminated
Oct 5
Waning Gibbous
Oct 8
Last Quarter
Oct 15
New
Oct 21
First Quarter
Oct 29
Full

Hourly Weather History & Observations

Time (PDT) Temp. Windchill Dew Point Humidity Pressure Visibility Wind Dir Wind Speed Gust Speed Precip Events Conditions
12:15 AM 46.4 °F 39.8 °F 17.6 °F 32% 30.20 in 10.0 mi NNW 16.1 mph 23.0 mph N/A   Clear
12:35 AM 44.6 °F 37.4 °F 19.4 °F 37% 30.21 in 10.0 mi NNW 16.1 mph 21.9 mph N/A   Clear
12:55 AM 44.6 °F 37.4 °F 19.4 °F 37% 30.21 in 10.0 mi NNW 16.1 mph 19.6 mph N/A   Clear
1:15 AM 44.6 °F 37.8 °F 17.6 °F 34% 30.20 in 10.0 mi NNW 15.0 mph - N/A   Clear
1:35 AM 42.8 °F 35.8 °F 17.6 °F 36% 30.21 in 10.0 mi NNW 13.8 mph - N/A   Clear
1:55 AM 42.8 °F 36.2 °F 19.4 °F 39% 30.21 in 10.0 mi NNW 12.7 mph - N/A   Clear
2:15 AM 42.8 °F 36.2 °F 19.4 °F 39% 30.21 in 10.0 mi NNW 12.7 mph - N/A   Clear
2:35 AM 39.2 °F 32.5 °F 19.4 °F 45% 30.21 in 10.0 mi NNW 10.4 mph - N/A   Clear
2:55 AM 37.4 °F 30.8 °F 17.6 °F 45% 30.21 in 10.0 mi NNW 9.2 mph - N/A   Clear
3:15 AM 35.6 °F 29.9 °F 19.4 °F 52% 30.21 in 10.0 mi NNW 6.9 mph - N/A   Clear
3:35 AM 35.6 °F 28.6 °F 19.4 °F 52% 30.21 in 10.0 mi NW 9.2 mph - N/A   Clear
3:55 AM 35.6 °F 29.9 °F 19.4 °F 52% 30.20 in 10.0 mi NW 6.9 mph - N/A   Clear
4:15 AM 33.8 °F 28.6 °F 19.4 °F 56% 30.21 in 10.0 mi NW 5.8 mph - N/A   Clear
4:35 AM 30.2 °F 22.6 °F 17.6 °F 60% 30.20 in 10.0 mi North 8.1 mph - N/A   Clear
4:55 AM 28.4 °F 19.7 °F 17.6 °F 64% 30.20 in 10.0 mi NNW 9.2 mph - N/A   Clear
5:15 AM 30.2 °F 23.4 °F 17.6 °F 60% 30.20 in 10.0 mi NW 6.9 mph - N/A   Clear
5:35 AM 30.2 °F 24.3 °F 19.4 °F 64% 30.20 in 10.0 mi NW 5.8 mph - N/A   Clear
5:55 AM 28.4 °F 24.6 °F 17.6 °F 64% 30.20 in 10.0 mi North 3.5 mph - N/A   Clear
6:15 AM 28.4 °F 22.2 °F 17.6 °F 64% 30.20 in 10.0 mi North 5.8 mph - N/A   Clear
6:35 AM 28.4 °F 21.2 °F 17.6 °F 64% 30.21 in 10.0 mi NNW 6.9 mph - N/A   Clear
6:55 AM 26.6 °F 19.1 °F 17.6 °F 69% 30.21 in 10.0 mi North 6.9 mph - N/A   Clear
7:15 AM 26.6 °F 18.2 °F 17.6 °F 69% 30.21 in 10.0 mi North 8.1 mph - N/A   Clear
7:35 AM 28.4 °F 21.2 °F 17.6 °F 64% 30.21 in 10.0 mi NNW 6.9 mph - N/A   Clear
7:55 AM 33.8 °F 28.6 °F 19.4 °F 56% 30.21 in 10.0 mi NNW 5.8 mph - N/A   Clear
8:15 AM 39.2 °F - 21.2 °F 49% 30.21 in 10.0 mi Calm Calm - N/A   Clear
8:35 AM 42.8 °F - 21.2 °F 42% - 10.0 mi Calm Calm - N/A   Clear
8:55 AM 44.6 °F - 21.2 °F 39% 30.22 in 10.0 mi Calm Calm - N/A   Clear
9:35 AM 44.6 °F - 21.2 °F 39% 30.22 in 10.0 mi Calm Calm - N/A   Clear
9:55 AM 48.2 °F - 21.2 °F 34% 30.22 in 10.0 mi Calm Calm - N/A   Clear
10:15 AM 51.8 °F - 21.2 °F 30% 30.22 in 10.0 mi NE 3.5 mph - N/A   Clear
10:35 AM 53.6 °F - 21.2 °F 28% 30.21 in 10.0 mi Calm Calm - N/A   Clear
10:55 AM 55.4 °F - 21.2 °F 26% 30.21 in 10.0 mi Calm Calm - N/A   Clear
11:35 AM 60.8 °F - 30.2 °F 31% 30.20 in 10.0 mi ESE 5.8 mph - N/A   Clear
11:55 AM 60.8 °F - 30.2 °F 31% 30.20 in 10.0 mi Calm Calm - N/A   Clear
12:15 PM 64.4 °F - 33.8 °F 32% 30.19 in 10.0 mi South 6.9 mph - N/A   Clear
12:35 PM 62.6 °F - 33.8 °F 34% 30.19 in 10.0 mi SE 4.6 mph - N/A   Clear
12:55 PM 64.4 °F - 33.8 °F 32% 30.18 in 10.0 mi SSW 3.5 mph - N/A   Clear
1:15 PM 64.4 °F - 33.8 °F 32% 30.18 in 10.0 mi Calm Calm - N/A   Clear
1:35 PM 64.4 °F - 30.2 °F 28% 30.17 in 10.0 mi Calm Calm - N/A   Clear
1:55 PM 69.8 °F - 30.2 °F 23% 30.16 in 10.0 mi ENE 4.6 mph - N/A   Clear
2:15 PM 66.2 °F - 30.2 °F 26% 30.16 in 10.0 mi Calm Calm - N/A   Clear
2:35 PM 68.0 °F - 30.2 °F 24% 30.16 in 10.0 mi Calm Calm - N/A   Clear
2:55 PM 66.2 °F - 28.4 °F 24% 30.15 in 10.0 mi North 6.9 mph - N/A   Clear
3:15 PM 66.2 °F - 28.4 °F 24% 30.15 in 10.0 mi NNW 10.4 mph - N/A   Clear
3:35 PM 64.4 °F - 26.6 °F 24% 30.15 in 10.0 mi North 11.5 mph - N/A   Clear
3:55 PM 64.4 °F - 23.0 °F 21% 30.15 in 10.0 mi North 15.0 mph - N/A   Clear
4:15 PM 62.6 °F - 23.0 °F 22% 30.15 in 10.0 mi North 15.0 mph 21.9 mph N/A   Clear
4:35 PM 62.6 °F - 21.2 °F 20% 30.15 in 10.0 mi North 16.1 mph 24.2 mph N/A   Clear
4:55 PM 62.6 °F - 21.2 °F 20% 30.15 in 10.0 mi North 18.4 mph 24.2 mph N/A   Clear
5:15 PM 62.6 °F - 21.2 °F 20% 30.14 in 10.0 mi North 16.1 mph 23.0 mph N/A   Clear
5:35 PM 62.6 °F - 19.4 °F 19% 30.14 in 10.0 mi North 17.3 mph - N/A   Clear
5:55 PM 60.8 °F - 19.4 °F 20% 30.14 in 10.0 mi North 17.3 mph - N/A   Clear
6:15 PM 57.2 °F - 19.4 °F 23% 30.14 in 10.0 mi NNW 13.8 mph 19.6 mph N/A   Clear
6:35 PM 55.4 °F - 19.4 °F 25% 30.14 in 10.0 mi North 13.8 mph - N/A   Clear
6:55 PM 55.4 °F - 19.4 °F 25% 30.15 in 10.0 mi North 12.7 mph - N/A   Clear
7:15 PM 55.4 °F - 19.4 °F 25% 30.15 in 10.0 mi North 13.8 mph - N/A   Clear
7:35 PM 53.6 °F - 19.4 °F 26% 30.15 in 10.0 mi North 13.8 mph - N/A   Clear
7:55 PM 53.6 °F - 19.4 °F 26% 30.15 in 10.0 mi North 15.0 mph 19.6 mph N/A   Clear
8:35 PM 51.8 °F - 19.4 °F 28% 30.16 in 10.0 mi NNW 12.7 mph - N/A   Clear
8:55 PM 51.8 °F - 19.4 °F 28% 30.16 in 10.0 mi NNW 12.7 mph - N/A   Clear
9:15 PM 50.0 °F - 19.4 °F 30% 30.16 in 10.0 mi North 12.7 mph - N/A   Clear
9:35 PM 51.8 °F - 19.4 °F 28% 30.17 in 10.0 mi North 10.4 mph - N/A   Clear
9:55 PM 50.0 °F - 17.6 °F 28% 30.17 in 10.0 mi NNW 12.7 mph - N/A   Clear
10:15 PM 48.2 °F - 17.6 °F 30% 30.18 in 10.0 mi NNW 10.4 mph - N/A   Clear
10:35 PM 48.2 °F - 17.6 °F 30% 30.18 in 10.0 mi NNW 11.5 mph - N/A   Clear
10:55 PM 46.4 °F 41.1 °F 17.6 °F 32% 30.18 in 10.0 mi NNW 11.5 mph - N/A   Clear
11:15 PM 46.4 °F 41.1 °F 17.6 °F 32% 30.19 in 10.0 mi NNW 11.5 mph - N/A   Clear
11:35 PM 46.4 °F 41.1 °F 17.6 °F 32% 30.19 in 10.0 mi North 11.5 mph - N/A   Clear
11:55 PM 44.6 °F 38.4 °F 15.8 °F 31% 30.19 in 10.0 mi NNW 12.7 mph - N/A   Clear